{"data":{"norad_id":69186,"epoch":"2026-09-19T23:38:12.062976Z","epoch_age_seconds":71475,"freshness":"FRESH","line1":"1 69186U 26114E   26262.98486184  .00015750  00000+0  47629-3 0  9998","line2":"2 69186  53.1588 116.3895 0001269  90.3542 269.7606 15.34399427 19368","mean_motion":15.34399427,"eccentricity":0.0001269,"inclination_deg":53.1588,"raan_deg":116.3895,"arg_perigee_deg":90.3542,"mean_anomaly_deg":269.7606,"bstar":0.00047629,"rev_number":1936,"period_min":93.847793127467,"perigee_km":461.83684044179,"apogee_km":463.57304612699,"semimajor_km":6840.8419432844,"source":"CELESTRAK","updated_at":"2026-09-20T09:00:44.096182Z"}}